Location: Saint Louis
(38.6272°N, 90.1978°W)
Time: 20:07:04
(UTC-05:00)

ISS - Pass Details

Date: 14 March 2013
Orbit: 402 x 404 km, 51.6° (Epoch: 29 May)

Event Time Altitude Azimuth Distance (km) Brightness Sun altitude
Exits shadow 05:27:28 13° 160° (SSE) 1,298 -0.7 -21.3°
Maximum altitude 05:28:54 17° 130° (SE) 1,141 -0.7 -21.0°
Drops below altitude 10° 05:31:05 10° 89° (E) 1,475 0.6 -20.6°
Sets 05:33:41 0° 67° (ENE) 2,334 2.1 -20.1°
